Time,TemperatureF,DewpointF,PressureIn,WindDirection,WindDirectionDegrees,WindSpeedMPH,WindSpeedGustMPH,Humidity,HourlyPrecipIn,Conditions,Clouds,dailyrainin,SoftwareType,DateUTC
2013-08-02 00:02:00,67.0,66.0,29.85,NNE,16,0.0,5.0,97,0.00,,,0.85,,2013-08-02 04:02:00,
2013-08-02 00:22:00,66.0,65.0,29.85,NNE,16,0.0,0.0,97,0.00,,,0.85,,2013-08-02 04:22:00,
2013-08-02 00:33:00,67.0,66.0,29.85,North,5,0.0,1.0,97,0.00,,,0.85,,2013-08-02 04:33:00,
2013-08-02 00:53:00,66.0,65.0,29.84,North,360,0.0,1.0,97,0.00,,,0.85,,2013-08-02 04:53:00,
2013-08-02 01:02:00,66.0,65.0,29.84,NNE,12,0.0,3.0,97,0.00,,,0.85,,2013-08-02 05:02:00,
2013-08-02 01:12:00,66.0,65.0,29.83,NNE,12,0.0,1.0,97,0.00,,,0.85,,2013-08-02 05:12:00,
2013-08-02 01:32:00,66.0,65.0,29.83,North,360,0.0,1.0,97,0.00,,,0.85,,2013-08-02 05:32:00,
2013-08-02 01:43:00,66.0,65.0,29.83,NW,315,0.0,5.0,97,0.00,,,0.85,,2013-08-02 05:43:00,
2013-08-02 01:53:00,66.0,65.0,29.83,West,267,0.0,4.0,97,0.00,,,0.85,,2013-08-02 05:53:00,
2013-08-02 02:02:00,66.0,65.0,29.82,West,268,0.0,1.0,97,0.00,,,0.85,,2013-08-02 06:02:00,
2013-08-02 02:12:00,66.0,65.0,29.82,West,269,0.0,4.0,97,0.00,,,0.85,,2013-08-02 06:12:00,
2013-08-02 02:22:00,66.0,65.0,29.81,West,269,0.0,1.0,97,0.00,,,0.85,,2013-08-02 06:22:00,
2013-08-02 02:33:00,66.0,65.0,29.81,West,269,0.0,1.0,96,0.00,,,0.85,,2013-08-02 06:33:00,
2013-08-02 02:43:00,65.0,64.0,29.81,West,269,0.0,4.0,97,0.00,,,0.85,,2013-08-02 06:43:00,
2013-08-02 02:52:00,65.0,64.0,29.80,West,269,0.0,2.0,97,0.00,,,0.85,,2013-08-02 06:52:00,
2013-08-02 03:02:00,65.0,64.0,29.80,West,269,0.0,1.0,96,0.00,,,0.85,,2013-08-02 07:02:00,
2013-08-02 03:12:00,65.0,64.0,29.80,West,269,0.0,1.0,96,0.00,,,0.85,,2013-08-02 07:12:00,
2013-08-02 03:22:00,65.0,64.0,29.80,West,269,0.0,3.0,97,0.00,,,0.85,,2013-08-02 07:22:00,
2013-08-02 03:33:00,65.0,64.0,29.80,West,279,0.0,5.0,97,0.00,,,0.85,,2013-08-02 07:33:00,
2013-08-02 03:44:00,64.0,63.0,29.80,West,280,0.0,5.0,96,0.00,,,0.85,,2013-08-02 07:44:00,
2013-08-02 03:53:00,64.0,63.0,29.80,West,280,1.0,3.0,96,0.00,,,0.85,,2013-08-02 07:53:00,
2013-08-02 04:02:00,64.0,63.0,29.81,West,280,0.0,3.0,97,0.00,,,0.85,,2013-08-02 08:02:00,
2013-08-02 04:12:00,64.0,63.0,29.81,West,280,0.0,1.0,96,0.00,,,0.85,,2013-08-02 08:12:00,
2013-08-02 04:33:00,63.0,62.0,29.82,West,280,0.0,0.0,97,0.00,,,0.85,,2013-08-02 08:33:00,
2013-08-02 04:43:00,63.0,62.0,29.82,West,280,0.0,1.0,96,0.00,,,0.85,,2013-08-02 08:43:00,
2013-08-02 04:53:00,63.0,62.0,29.82,West,280,0.0,1.0,97,0.00,,,0.85,,2013-08-02 08:53:00,
2013-08-02 05:02:00,62.0,61.0,29.83,West,280,0.0,1.0,96,0.00,,,0.85,,2013-08-02 09:02:00,
2013-08-02 05:12:00,62.0,61.0,29.83,West,280,0.0,1.0,97,0.00,,,0.85,,2013-08-02 09:12:00,
2013-08-02 05:23:00,62.0,61.0,29.83,West,280,0.0,2.0,97,0.00,,,0.85,,2013-08-02 09:23:00,
2013-08-02 05:44:00,62.0,61.0,29.83,West,280,0.0,3.0,97,0.00,,,0.85,,2013-08-02 09:44:00,
2013-08-02 05:53:00,61.0,60.0,29.84,West,279,0.0,3.0,97,0.00,,,0.85,,2013-08-02 09:53:00,
2013-08-02 06:03:00,61.0,60.0,29.85,WNW,284,0.0,1.0,96,0.00,,,0.85,,2013-08-02 10:03:00,
2013-08-02 06:12:00,61.0,60.0,29.85,West,277,0.0,4.0,96,0.00,,,0.85,,2013-08-02 10:12:00,
2013-08-02 06:23:00,61.0,60.0,29.86,West,278,0.0,7.0,96,0.00,,,0.85,,2013-08-02 10:23:00,
2013-08-02 06:33:00,61.0,60.0,29.86,West,278,0.0,2.0,97,0.00,,,0.85,,2013-08-02 10:33:00,
2013-08-02 06:43:00,61.0,60.0,29.86,West,278,0.0,1.0,97,0.00,,,0.85,,2013-08-02 10:43:00,
2013-08-02 06:52:00,61.0,60.0,29.86,West,278,0.0,3.0,97,0.00,,,0.85,,2013-08-02 10:52:00,
2013-08-02 07:02:00,61.0,60.0,29.87,West,278,0.0,1.0,97,0.00,,,0.85,,2013-08-02 11:02:00,
2013-08-02 07:12:00,61.0,60.0,29.87,West,278,0.0,2.0,97,0.00,,,0.85,,2013-08-02 11:12:00,
2013-08-02 07:23:00,61.0,60.0,29.87,West,278,0.0,3.0,97,0.01,,,0.86,,2013-08-02 11:23:00,
2013-08-02 07:33:00,62.0,61.0,29.88,West,278,0.0,1.0,97,0.01,,,0.86,,2013-08-02 11:33:00,
2013-08-02 07:43:00,62.0,61.0,29.88,West,278,0.0,2.0,97,0.01,,,0.86,,2013-08-02 11:43:00,
2013-08-02 07:52:00,62.0,61.0,29.88,West,278,0.0,3.0,96,0.01,,,0.86,,2013-08-02 11:52:00,
2013-08-02 08:02:00,63.0,62.0,29.88,West,278,0.0,2.0,96,0.01,,,0.86,,2013-08-02 12:02:00,
2013-08-02 08:12:00,64.0,63.0,29.88,WNW,302,0.0,4.0,95,0.01,,,0.86,,2013-08-02 12:12:00,
2013-08-02 08:22:00,64.0,62.0,29.88,NW,309,0.0,5.0,93,0.00,,,0.86,,2013-08-02 12:22:00,
2013-08-02 08:43:00,66.0,63.0,29.89,WNW,293,0.0,2.0,91,0.00,,,0.86,,2013-08-02 12:43:00,
2013-08-02 08:52:00,67.0,63.0,29.90,NNE,18,2.0,6.0,87,0.00,,,0.86,,2013-08-02 12:52:00,
2013-08-02 09:02:00,67.0,63.0,29.90,NNW,338,1.0,4.0,86,0.00,,,0.86,,2013-08-02 13:02:00,
2013-08-02 09:12:00,68.0,64.0,29.90,NNW,345,0.0,4.0,87,0.00,,,0.86,,2013-08-02 13:12:00,
2013-08-02 09:33:00,69.0,64.0,29.90,NW,319,0.0,3.0,83,0.00,,,0.86,,2013-08-02 13:33:00,
2013-08-02 09:43:00,70.0,65.0,29.90,NNE,31,1.0,7.0,84,0.00,,,0.77,,2013-08-02 13:43:00,
2013-08-02 09:52:00,71.0,65.0,29.91,West,276,0.0,1.0,82,0.00,,,0.77,,2013-08-02 13:52:00,
2013-08-02 10:02:00,71.0,65.0,29.91,West,276,0.0,1.0,82,0.00,,,0.77,,2013-08-02 14:02:00,
2013-08-02 10:12:00,72.0,64.0,29.90,WNW,296,1.0,4.0,77,0.00,,,0.77,,2013-08-02 14:12:00,
2013-08-02 10:22:00,72.0,64.0,29.91,NNE,29,2.0,9.0,75,0.00,,,0.77,,2013-08-02 14:22:00,
2013-08-02 10:32:00,73.0,65.0,29.91,NW,325,2.0,5.0,75,0.00,,,0.64,,2013-08-02 14:32:00,
2013-08-02 10:43:00,73.0,64.0,29.91,North,9,1.0,7.0,74,0.00,,,0.64,,2013-08-02 14:43:00,
2013-08-02 10:53:00,73.0,64.0,29.91,WNW,300,1.0,10.0,73,0.00,,,0.64,,2013-08-02 14:53:00,
2013-08-02 11:03:00,73.0,65.0,29.91,West,278,5.0,11.0,75,0.00,,,0.64,,2013-08-02 15:03:00,
2013-08-02 11:12:00,74.0,64.0,29.91,NW,314,3.0,8.0,70,0.00,,,0.64,,2013-08-02 15:12:00,
2013-08-02 11:22:00,74.0,64.0,29.91,NNE,30,3.0,11.0,71,0.00,,,0.64,,2013-08-02 15:22:00,
2013-08-02 11:32:00,74.0,63.0,29.91,NW,319,2.0,10.0,68,0.00,,,0.64,,2013-08-02 15:32:00,
2013-08-02 11:43:00,75.0,64.0,29.91,West,281,5.0,9.0,68,0.00,,,0.31,,2013-08-02 15:43:00,
2013-08-02 11:52:00,75.0,63.0,29.91,West,273,1.0,8.0,67,0.00,,,0.31,,2013-08-02 15:52:00,
2013-08-02 12:02:00,75.0,64.0,29.91,NNE,14,2.0,5.0,69,0.00,,,0.31,,2013-08-02 16:02:00,
2013-08-02 12:22:00,76.0,62.0,29.91,North,5,4.0,7.0,63,0.00,,,0.31,,2013-08-02 16:22:00,
2013-08-02 12:32:00,75.0,63.0,29.91,NE,48,0.0,6.0,67,0.00,,,0.17,,2013-08-02 16:32:00,
2013-08-02 12:43:00,75.0,62.0,29.91,NW,316,0.0,10.0,63,0.00,,,0.17,,2013-08-02 16:43:00,
2013-08-02 12:52:00,76.0,63.0,29.91,WNW,286,2.0,5.0,65,0.00,,,0.17,,2013-08-02 16:52:00,
2013-08-02 13:02:00,77.0,64.0,29.90,West,270,1.0,5.0,64,0.00,,,0.17,,2013-08-02 17:02:00,
2013-08-02 13:12:00,77.0,63.0,29.90,SW,236,2.0,9.0,61,0.00,,,0.17,,2013-08-02 17:12:00,
2013-08-02 13:35:00,77.0,63.0,29.90,WNW,292,0.0,7.0,61,0.00,,,0.17,,2013-08-02 17:35:00,
2013-08-02 13:43:00,78.0,61.0,29.90,WSW,246,2.0,11.0,56,0.00,,,0.15,,2013-08-02 17:43:00,
2013-08-02 13:52:00,78.0,60.0,29.90,West,267,3.0,11.0,54,0.00,,,0.15,,2013-08-02 17:52:00,
2013-08-02 14:12:00,78.0,61.0,29.90,WNW,284,4.0,15.0,56,0.00,,,0.15,,2013-08-02 18:12:00,
2013-08-02 14:22:00,79.0,63.0,29.90,WSW,244,4.0,15.0,58,0.00,,,0.15,,2013-08-02 18:22:00,
2013-08-02 14:43:00,79.0,61.0,29.90,NE,41,1.0,10.0,55,0.00,,,0.14,,2013-08-02 18:43:00,
2013-08-02 14:52:00,79.0,60.0,29.89,West,262,3.0,10.0,53,0.00,,,0.14,,2013-08-02 18:52:00,
2013-08-02 15:32:00,79.0,61.0,29.88,West,263,2.0,8.0,55,0.00,,,0.14,,2013-08-02 19:32:00,
2013-08-02 15:43:00,78.0,61.0,29.88,WSW,249,0.0,9.0,56,0.00,,,0.14,,2013-08-02 19:43:00,
2013-08-02 15:52:00,79.0,62.0,29.88,West,275,2.0,6.0,56,0.00,,,0.14,,2013-08-02 19:52:00,
2013-08-02 16:02:00,79.0,62.0,29.88,West,261,2.0,6.0,56,0.00,,,0.14,,2013-08-02 20:02:00,
2013-08-02 16:43:00,77.0,62.0,29.88,WNW,292,2.0,7.0,60,0.00,,,0.11,,2013-08-02 20:43:00,
2013-08-02 16:52:00,77.0,63.0,29.88,West,262,1.0,6.0,62,0.00,,,0.11,,2013-08-02 20:52:00,
2013-08-02 17:02:00,76.0,63.0,29.88,WSW,250,0.0,4.0,64,0.00,,,0.11,,2013-08-02 21:02:00,
2013-08-02 17:22:00,77.0,64.0,29.88,WNW,288,0.0,5.0,65,0.00,,,0.11,,2013-08-02 21:22:00,
2013-08-02 17:53:00,78.0,65.0,29.89,NNW,327,0.0,5.0,64,0.00,,,0.05,,2013-08-02 21:53:00,
2013-08-02 18:03:00,77.0,63.0,29.88,West,259,2.0,7.0,62,0.00,,,0.05,,2013-08-02 22:03:00,
2013-08-02 18:22:00,76.0,63.0,29.86,WSW,258,0.0,6.0,64,0.00,,,0.05,,2013-08-02 22:22:00,
2013-08-02 18:32:00,75.0,63.0,29.85,WSW,240,0.0,1.0,67,0.00,,,0.04,,2013-08-02 22:32:00,
2013-08-02 18:43:00,76.0,64.0,29.85,WSW,240,0.0,1.0,67,0.00,,,0.04,,2013-08-02 22:43:00,
2013-08-02 18:52:00,76.0,65.0,29.85,West,259,0.0,1.0,69,0.00,,,0.04,,2013-08-02 22:52:00,
2013-08-02 19:02:00,75.0,64.0,29.87,WNW,291,1.0,4.0,68,0.00,,,0.04,,2013-08-02 23:02:00,
2013-08-02 19:12:00,74.0,64.0,29.87,WNW,291,0.0,1.0,70,0.00,,,0.04,,2013-08-02 23:12:00,
2013-08-02 19:22:00,74.0,64.0,29.88,WNW,291,0.0,1.0,71,0.00,,,0.04,,2013-08-02 23:22:00,
2013-08-02 19:32:00,73.0,63.0,29.88,WNW,291,0.0,1.0,71,0.00,,,0.02,,2013-08-02 23:32:00,
2013-08-02 19:43:00,73.0,63.0,29.88,WNW,291,0.0,1.0,71,0.00,,,0.02,,2013-08-02 23:43:00,
2013-08-02 19:53:00,72.0,64.0,29.88,WNW,291,0.0,0.0,76,0.00,,,0.02,,2013-08-02 23:53:00,
2013-08-02 20:02:00,72.0,64.0,29.88,WNW,291,0.0,0.0,77,0.00,,,0.02,,2013-08-03 00:02:00,
2013-08-02 20:12:00,72.0,64.0,29.88,WNW,291,0.0,0.0,77,0.00,,,0.02,,2013-08-03 00:12:00,
2013-08-02 20:22:00,71.0,64.0,29.88,WNW,291,0.0,0.0,79,0.00,,,0.02,,2013-08-03 00:22:00,
2013-08-02 20:33:00,71.0,64.0,29.88,WNW,291,0.0,0.0,79,0.00,,,0.02,,2013-08-03 00:33:00,
2013-08-02 20:43:00,71.0,64.0,29.89,WNW,291,0.0,1.0,79,0.00,,,0.01,,2013-08-03 00:43:00,
2013-08-02 20:52:00,71.0,64.0,29.90,WNW,291,0.0,0.0,79,0.00,,,0.01,,2013-08-03 00:52:00,
2013-08-02 21:03:00,70.0,64.0,29.90,WNW,291,0.0,0.0,81,0.00,,,0.01,,2013-08-03 01:03:00,
2013-08-02 21:12:00,70.0,64.0,29.90,WNW,291,0.0,0.0,82,0.00,,,0.01,,2013-08-03 01:12:00,
2013-08-02 21:22:00,69.0,64.0,29.90,WNW,291,0.0,0.0,83,0.00,,,0.01,,2013-08-03 01:22:00,
2013-08-02 21:33:00,68.0,63.0,29.91,WNW,291,0.0,1.0,84,0.00,,,0.01,,2013-08-03 01:33:00,
2013-08-02 21:42:00,68.0,63.0,29.91,WNW,291,0.0,0.0,84,0.00,,,0.01,,2013-08-03 01:42:00,
2013-08-02 21:53:00,67.0,62.0,29.91,WNW,291,0.0,0.0,84,0.00,,,0.01,,2013-08-03 01:53:00,
2013-08-02 22:02:00,67.0,62.0,29.91,WNW,291,0.0,0.0,84,0.00,,,0.01,,2013-08-03 02:02:00,
2013-08-02 22:12:00,67.0,62.0,29.91,WNW,291,0.0,0.0,84,0.00,,,0.01,,2013-08-03 02:12:00,
2013-08-02 22:32:00,66.0,61.0,29.92,WNW,291,0.0,0.0,85,0.00,,,0.01,,2013-08-03 02:32:00,
2013-08-02 22:52:00,65.0,60.0,29.92,WNW,291,0.0,0.0,85,0.00,,,0.01,,2013-08-03 02:52:00,
2013-08-02 23:53:00,65.0,60.0,29.92,WNW,291,0.0,1.0,83,0.00,,,0.01,,2013-08-03 03:53:00,